Watonga, OK

2:26 AM CDT on March 26, 2017 (GMT -0500)
Watonga

Weather History for KJWG - January, 2013

Change the Weather History Date:

Wednesday, January 9, 2013

  Actual Average Record
Temperature  
Mean Temperature 42 °F -  
Max Temperature 49 °F 42 °F 77 °F (2002)
Min Temperature 35 °F 22 °F 0 °F (1977)
Degree Days  
Heating Degree Days 23    
Moisture  
Dew Point 37 °F    
Average Humidity 84    
Maximum Humidity 100    
Minimum Humidity 60    
Precipitation  
Precipitation 0.14 in - - ()
Sea Level Pressure  
Sea Level Pressure 30.24 in    
Wind  
Wind Speed 8 mph (North)    
Max Wind Speed 18 mph    
Max Gust Speed 29 mph    
Visibility 9 miles    
Events Rain    
Averages and records for this station are not official NWS values.
T = Trace of Precipitation, MM = Missing Value Source: NWS Daily Summary

Daily Weather History Graph

Daily Weather History Graph

Search for Another Location

Airport or City:

Trip Planner

Search our weather history database for the weather conditions in past years. The results will help you decide how hot, cold, wet, or windy it might be!

Date:

Astronomy

Jan. 09, 2013 Rise Set
Actual Time 7:44 AM CST 5:37 PM CST
Civil Twilight 7:16 AM CST 6:06 PM CST
Nautical Twilight 6:44 AM CST 6:37 PM CST
Astronomical Twilight 6:13 AM CST 7:08 PM CST
Moon 5:24 AM CST (1/9) 3:41 PM CST (1/9)
Length of Visible Light 10h 49m
Length of Day
9h 53m
Waning Crescent, 6% of the Moon is Illuminated
Jan 9
Waning Crescent
Jan 11
New
Jan 18
First Quarter
Jan 26
Full
Feb 3
Last Quarter

Hourly Weather History & Observations

Time (CST) Temp. Windchill Dew Point Humidity Pressure Visibility Wind Dir Wind Speed Gust Speed Precip Events Conditions
12:15 AM 37.6 °F - 37.6 °F 100% 30.18 in 10.0 mi Calm Calm - N/A   Clear
12:35 AM 38.1 °F - 38.1 °F 100% 30.19 in 10.0 mi Calm Calm - N/A   Clear
12:55 AM 36.5 °F - 36.5 °F 100% 30.19 in 10.0 mi Calm Calm - N/A   Clear
1:15 AM 35.6 °F 31.7 °F 35.6 °F 100% 30.20 in 7.0 mi WNW 4.6 mph - N/A   Clear
1:35 AM 36.1 °F 33.5 °F 36.1 °F 100% 30.21 in 10.0 mi WNW 3.5 mph - N/A   Clear
1:55 AM 36.5 °F 33.9 °F 36.5 °F 100% 30.21 in 10.0 mi NW 3.5 mph - N/A   Clear
2:15 AM 37.4 °F 34.9 °F 37.4 °F 100% 30.20 in 10.0 mi NNW 3.5 mph - N/A   Clear
2:35 AM 37.0 °F - 37.0 °F 100% 30.19 in 10.0 mi Calm Calm - N/A   Clear
3:15 AM 37.6 °F 31.6 °F 37.0 °F 98% 30.19 in 10.0 mi NNW 8.1 mph - N/A   Clear
3:35 AM 38.1 °F 32.9 °F 36.5 °F 94% 30.20 in 10.0 mi NNW 6.9 mph - N/A   Clear
3:55 AM 37.8 °F 32.5 °F 35.6 °F 92% 30.21 in 10.0 mi NNW 6.9 mph - N/A   Clear
4:15 AM 37.8 °F 31.3 °F 34.7 °F 89% 30.21 in 10.0 mi North 9.2 mph - N/A   Clear
4:35 AM 37.8 °F 31.8 °F 34.7 °F 89% 30.23 in 10.0 mi NNW 8.1 mph - N/A   Clear
4:55 AM 37.9 °F 32.7 °F 34.9 °F 89% 30.23 in 10.0 mi North 6.9 mph - N/A   Clear
5:15 AM 37.9 °F 32.7 °F 35.1 °F 89% 30.23 in 10.0 mi NNW 6.9 mph - N/A   Clear
5:35 AM 38.3 °F 31.9 °F 35.1 °F 88% 30.24 in 10.0 mi North 9.2 mph - N/A   Clear
5:55 AM 37.9 °F 30.0 °F 34.3 °F 87% 30.23 in 10.0 mi North 12.7 mph - N/A   Clear
6:15 AM 37.9 °F 30.9 °F 33.8 °F 85% 30.25 in 10.0 mi North 10.4 mph - N/A   Clear
6:35 AM 37.6 °F 32.3 °F 33.8 °F 86% 30.26 in 10.0 mi NNW 6.9 mph - N/A   Clear
6:55 AM 37.8 °F 34.2 °F 33.8 °F 86% 30.29 in 10.0 mi NNW 4.6 mph - N/A   Clear
7:15 AM 37.0 °F 30.4 °F 34.0 °F 89% 30.29 in 10.0 mi North 9.2 mph - N/A   Clear
7:35 AM 38.5 °F 32.1 °F 33.3 °F 81% 30.30 in 10.0 mi North 9.2 mph - N/A   Scattered Clouds
7:55 AM 38.3 °F 31.4 °F 32.9 °F 81% 30.31 in 10.0 mi North 10.4 mph - N/A   Clear
8:15 AM 37.6 °F 30.0 °F 32.5 °F 82% 30.30 in 10.0 mi North 11.5 mph - N/A   Clear
8:35 AM 37.6 °F 29.6 °F 32.4 °F 81% 30.32 in 10.0 mi North 12.7 mph - N/A   Clear
8:55 AM 37.6 °F 29.6 °F 32.4 °F 81% 30.32 in 10.0 mi North 12.7 mph - N/A   Clear
9:15 AM 37.9 °F 30.5 °F 32.5 °F 81% 30.34 in 10.0 mi North 11.5 mph - N/A   Scattered Clouds
9:35 AM 38.3 °F 29.3 °F 32.2 °F 79% 30.33 in 10.0 mi North 16.1 mph 20.7 mph N/A   Overcast
10:15 AM 39.9 °F 32.5 °F 33.1 °F 77% 30.35 in 10.0 mi North 12.7 mph - N/A   Overcast
10:35 AM 40.5 °F 33.6 °F 34.0 °F 78% 30.35 in 10.0 mi North 11.5 mph - N/A   Overcast
10:55 AM 41.0 °F 33.9 °F 34.0 °F 76% 30.35 in 10.0 mi North 12.7 mph - N/A   Overcast
11:15 AM 41.2 °F 33.0 °F 33.8 °F 75% 30.33 in 10.0 mi North 16.1 mph - N/A   Overcast
11:55 AM 42.4 °F 36.1 °F 33.6 °F 71% 30.33 in 10.0 mi NNE 11.5 mph - N/A   Overcast
12:15 PM 43.3 °F 36.1 °F 33.8 °F 69% 30.32 in 10.0 mi NNE 15.0 mph - N/A   Overcast
12:35 PM 43.7 °F 36.6 °F 33.6 °F 68% 30.31 in 10.0 mi North 15.0 mph - N/A   Overcast
12:55 PM 44.8 °F 38.3 °F 33.8 °F 65% 30.30 in 10.0 mi NNE 13.8 mph - N/A   Overcast
1:15 PM 45.7 °F 39.1 °F 34.0 °F 64% 30.28 in 10.0 mi NNE 15.0 mph - N/A   Overcast
1:35 PM 46.4 °F 39.8 °F 33.6 °F 61% 30.28 in 10.0 mi NE 16.1 mph - N/A   Overcast
2:15 PM 46.4 °F 40.7 °F 33.8 °F 62% 30.27 in 10.0 mi NNE 12.7 mph - N/A   Overcast
2:35 PM 45.1 °F 39.1 °F 37.6 °F 75% 30.25 in 7.0 mi North 12.7 mph - N/A   Light Drizzle
2:55 PM 45.9 °F 40.8 °F 37.6 °F 73% 30.25 in 10.0 mi NNE 10.4 mph - N/A   Overcast
3:15 PM 47.8 °F - 36.1 °F 64% 30.24 in 10.0 mi North 10.4 mph - N/A   Overcast
3:35 PM 47.7 °F - 35.8 °F 63% 30.23 in 10.0 mi North 17.3 mph - N/A   Overcast
3:55 PM 48.4 °F - 35.6 °F 61% 30.23 in 10.0 mi NNE 15.0 mph - N/A   Overcast
4:15 PM 49.1 °F - 35.8 °F 60% 30.23 in 10.0 mi North 16.1 mph - N/A   Overcast
4:35 PM 48.9 °F - 37.4 °F 64% 30.23 in 10.0 mi North 17.3 mph - N/A   Overcast
4:55 PM 48.6 °F - 38.7 °F 69% 30.22 in 10.0 mi NNE 17.3 mph - N/A   Overcast
5:15 PM 49.8 °F - 38.1 °F 64% 30.22 in 10.0 mi NNE 16.1 mph - N/A   Overcast
5:35 PM 49.8 °F - 38.5 °F 65% 30.23 in 10.0 mi NNE 16.1 mph 28.8 mph N/A   Overcast
6:15 PM 46.2 °F 39.5 °F 41.2 °F 83% 30.23 in 10.0 mi NNE 16.1 mph 20.7 mph 0.01 in   Drizzle
6:35 PM 46.2 °F 39.5 °F 41.7 °F 84% 30.22 in 10.0 mi NNE 16.1 mph - 0.01 in   Light Drizzle
7:15 PM 45.5 °F 38.3 °F 41.9 °F 87% 30.21 in 10.0 mi NNE 17.3 mph - 0.01 in Rain Light Rain
7:35 PM 45.5 °F 38.1 °F 41.9 °F 87% 30.20 in 10.0 mi NNE 18.4 mph - 0.01 in   Light Drizzle
8:15 PM 45.0 °F 37.6 °F 42.4 °F 91% 30.20 in 10.0 mi NE 17.3 mph 21.9 mph N/A   Light Drizzle
8:35 PM 44.1 °F 36.8 °F 43.2 °F 97% 30.20 in 7.0 mi NNE 16.1 mph - N/A   Drizzle
8:55 PM 43.7 °F 36.0 °F 43.7 °F 100% 30.18 in 4.0 mi NE 17.3 mph - 0.01 in   Drizzle
9:15 PM 43.5 °F 35.8 °F 43.5 °F 100% 30.18 in 4.0 mi NE 17.3 mph 21.9 mph 0.01 in   Drizzle
9:35 PM 43.7 °F 35.7 °F 43.7 °F 100% 30.16 in 5.0 mi NE 18.4 mph - 0.02 in   Drizzle
9:55 PM 43.7 °F 35.7 °F 43.7 °F 100% 30.15 in 4.0 mi NE 18.4 mph - 0.03 in   Drizzle
10:15 PM 43.7 °F 36.3 °F 43.7 °F 100% 30.15 in 4.0 mi NE 16.1 mph - 0.02 in Rain Light Rain
10:35 PM 43.7 °F 36.6 °F 43.7 °F 100% 30.16 in 7.0 mi NE 15.0 mph - 0.05 in Rain Light Rain
10:55 PM 43.7 °F 36.6 °F 43.7 °F 100% 30.15 in 3.0 mi NE 15.0 mph - 0.05 in   Drizzle
11:15 PM 43.9 °F 38.8 °F 43.9 °F 100% 30.15 in 5.0 mi NE 9.2 mph - 0.01 in   Light Drizzle
11:35 PM 43.9 °F 38.3 °F 43.9 °F 100% 30.15 in 2.5 mi NE 10.4 mph - 0.02 in   Drizzle
11:55 PM 43.9 °F 37.9 °F 43.9 °F 100% 30.13 in 2.5 mi NE 11.5 mph - 0.03 in   Drizzle